Terug naar catalogus

STARLINK-32949

ActiefCommunicatieVLEO
NORAD 63145·PAYLOAD·🇺🇸 United States

Gelanceerd Mar 3, 2025 vanaf Cape Canaveral Space Force Station

Loading…

Volgende Passages (komende 24 uur)

TLE

VersSource: CelesTrak SupGP

Epoch: Sep 15, 2026, 03:52 UTC

1 63145C 25043P   26258.16159722  .00017435  00000+0  63147-3 0  2580
2 63145  43.0040  26.4711 0001512 265.5961 193.0581 15.27571989    18

Volg STARLINK-32949 in realtime met AllMySat

Download on the App Store